Index of /20260503/WXO-DD/model_rdps/10km/18/080
Name Last modified Size Description
Parent Directory -
20260503T18Z_MSC_RDPS_AbsoluteVorticity_IsbL-0250_RLatLon0.09_PT080H.grib2 2026-05-03 21:05 597K
20260503T18Z_MSC_RDPS_AbsoluteVorticity_IsbL-0500_RLatLon0.09_PT080H.grib2 2026-05-03 21:05 553K
20260503T18Z_MSC_RDPS_AbsoluteVorticity_IsbL-0700_RLatLon0.09_PT080H.grib2 2026-05-03 21:05 610K
20260503T18Z_MSC_RDPS_AbsoluteVorticity_IsbL-0850_RLatLon0.09_PT080H.grib2 2026-05-03 21:05 776K
20260503T18Z_MSC_RDPS_AirTemp_AGL-120m_RLatLon0.09_PT080H.grib2 2026-05-03 21:05 368K
20260503T18Z_MSC_RDPS_AirTemp_AGL-2m_RLatLon0.09_PT080H.grib2 2026-05-03 21:05 620K
20260503T18Z_MSC_RDPS_AirTemp_AGL-40m_RLatLon0.09_PT080H.grib2 2026-05-03 21:05 396K
20260503T18Z_MSC_RDPS_AirTemp_AGL-80m_RLatLon0.09_PT080H.grib2 2026-05-03 21:05 388K
20260503T18Z_MSC_RDPS_AirTemp_IsbL-0001_RLatLon0.09_PT080H.grib2 2026-05-03 21:05 228K
20260503T18Z_MSC_RDPS_AirTemp_IsbL-0005_RLatLon0.09_PT080H.grib2 2026-05-03 21:05 285K
20260503T18Z_MSC_RDPS_AirTemp_IsbL-0010_RLatLon0.09_PT080H.grib2 2026-05-03 21:05 386K
20260503T18Z_MSC_RDPS_AirTemp_IsbL-0020_RLatLon0.09_PT080H.grib2 2026-05-03 21:05 317K
20260503T18Z_MSC_RDPS_AirTemp_IsbL-0030_RLatLon0.09_PT080H.grib2 2026-05-03 21:05 332K
20260503T18Z_MSC_RDPS_AirTemp_IsbL-0050_RLatLon0.09_PT080H.grib2 2026-05-03 21:05 309K
20260503T18Z_MSC_RDPS_AirTemp_IsbL-0100_RLatLon0.09_PT080H.grib2 2026-05-03 21:05 418K
20260503T18Z_MSC_RDPS_AirTemp_IsbL-0150_RLatLon0.09_PT080H.grib2 2026-05-03 21:05 405K
20260503T18Z_MSC_RDPS_AirTemp_IsbL-0175_RLatLon0.09_PT080H.grib2 2026-05-03 21:05 400K
20260503T18Z_MSC_RDPS_AirTemp_IsbL-0200_RLatLon0.09_PT080H.grib2 2026-05-03 21:05 409K
20260503T18Z_MSC_RDPS_AirTemp_IsbL-0225_RLatLon0.09_PT080H.grib2 2026-05-03 21:05 410K
20260503T18Z_MSC_RDPS_AirTemp_IsbL-0250_RLatLon0.09_PT080H.grib2 2026-05-03 21:05 415K
20260503T18Z_MSC_RDPS_AirTemp_IsbL-0275_RLatLon0.09_PT080H.grib2 2026-05-03 21:05 396K
20260503T18Z_MSC_RDPS_AirTemp_IsbL-0300_RLatLon0.09_PT080H.grib2 2026-05-03 21:05 405K
20260503T18Z_MSC_RDPS_AirTemp_IsbL-0350_RLatLon0.09_PT080H.grib2 2026-05-03 21:05 421K
20260503T18Z_MSC_RDPS_AirTemp_IsbL-0400_RLatLon0.09_PT080H.grib2 2026-05-03 21:05 425K
20260503T18Z_MSC_RDPS_AirTemp_IsbL-0450_RLatLon0.09_PT080H.grib2 2026-05-03 21:05 432K
20260503T18Z_MSC_RDPS_AirTemp_IsbL-0500_RLatLon0.09_PT080H.grib2 2026-05-03 21:05 440K
20260503T18Z_MSC_RDPS_AirTemp_IsbL-0550_RLatLon0.09_PT080H.grib2 2026-05-03 21:05 420K
20260503T18Z_MSC_RDPS_AirTemp_IsbL-0600_RLatLon0.09_PT080H.grib2 2026-05-03 21:05 437K
20260503T18Z_MSC_RDPS_AirTemp_IsbL-0650_RLatLon0.09_PT080H.grib2 2026-05-03 21:05 453K
20260503T18Z_MSC_RDPS_AirTemp_IsbL-0700_RLatLon0.09_PT080H.grib2 2026-05-03 21:05 371K
20260503T18Z_MSC_RDPS_AirTemp_IsbL-0750_RLatLon0.09_PT080H.grib2 2026-05-03 21:05 402K
20260503T18Z_MSC_RDPS_AirTemp_IsbL-0800_RLatLon0.09_PT080H.grib2 2026-05-03 21:05 445K
20260503T18Z_MSC_RDPS_AirTemp_IsbL-0850_RLatLon0.09_PT080H.grib2 2026-05-03 21:05 495K
20260503T18Z_MSC_RDPS_AirTemp_IsbL-0875_RLatLon0.09_PT080H.grib2 2026-05-03 21:05 517K
20260503T18Z_MSC_RDPS_AirTemp_IsbL-0900_RLatLon0.09_PT080H.grib2 2026-05-03 21:05 523K
20260503T18Z_MSC_RDPS_AirTemp_IsbL-0925_RLatLon0.09_PT080H.grib2 2026-05-03 21:05 521K
20260503T18Z_MSC_RDPS_AirTemp_IsbL-0950_RLatLon0.09_PT080H.grib2 2026-05-03 21:05 514K
20260503T18Z_MSC_RDPS_AirTemp_IsbL-0970_RLatLon0.09_PT080H.grib2 2026-05-03 21:05 509K
20260503T18Z_MSC_RDPS_AirTemp_IsbL-0985_RLatLon0.09_PT080H.grib2 2026-05-03 21:05 499K
20260503T18Z_MSC_RDPS_AirTemp_IsbL-1000_RLatLon0.09_PT080H.grib2 2026-05-03 21:05 481K
20260503T18Z_MSC_RDPS_AirTemp_IsbL-1015_RLatLon0.09_PT080H.grib2 2026-05-03 21:05 482K
20260503T18Z_MSC_RDPS_Albedo_Sfc_RLatLon0.09_PT080H.grib2 2026-05-03 21:05 159K
20260503T18Z_MSC_RDPS_CAPE_Sfc_RLatLon0.09_PT080H.grib2 2026-05-03 21:05 1.7M
20260503T18Z_MSC_RDPS_CIN_Sfc_RLatLon0.09_PT080H.grib2 2026-05-03 21:05 1.2M
20260503T18Z_MSC_RDPS_CloudWater_EAtm_RLatLon0.09_PT080H.grib2 2026-05-03 21:05 223K
20260503T18Z_MSC_RDPS_ConvectivePrecip-Accum_Sfc_RLatLon0.09_PT080H.grib2 2026-05-03 21:05 1.3M
20260503T18Z_MSC_RDPS_DewPointDepression_AGL-2m_RLatLon0.09_PT080H.grib2 2026-05-03 21:05 404K
20260503T18Z_MSC_RDPS_DewPointDepression_IsbL-0001_RLatLon0.09_PT080H.grib2 2026-05-03 21:05 193
20260503T18Z_MSC_RDPS_DewPointDepression_IsbL-0005_RLatLon0.09_PT080H.grib2 2026-05-03 21:05 193
20260503T18Z_MSC_RDPS_DewPointDepression_IsbL-0010_RLatLon0.09_PT080H.grib2 2026-05-03 21:05 193
20260503T18Z_MSC_RDPS_DewPointDepression_IsbL-0020_RLatLon0.09_PT080H.grib2 2026-05-03 21:05 193
20260503T18Z_MSC_RDPS_DewPointDepression_IsbL-0030_RLatLon0.09_PT080H.grib2 2026-05-03 21:05 193
20260503T18Z_MSC_RDPS_DewPointDepression_IsbL-0050_RLatLon0.09_PT080H.grib2 2026-05-03 21:05 78K
20260503T18Z_MSC_RDPS_DewPointDepression_IsbL-0100_RLatLon0.09_PT080H.grib2 2026-05-03 21:05 113K
20260503T18Z_MSC_RDPS_DewPointDepression_IsbL-0150_RLatLon0.09_PT080H.grib2 2026-05-03 21:05 141K
20260503T18Z_MSC_RDPS_DewPointDepression_IsbL-0175_RLatLon0.09_PT080H.grib2 2026-05-03 21:05 184K
20260503T18Z_MSC_RDPS_DewPointDepression_IsbL-0200_RLatLon0.09_PT080H.grib2 2026-05-03 21:05 225K
20260503T18Z_MSC_RDPS_DewPointDepression_IsbL-0225_RLatLon0.09_PT080H.grib2 2026-05-03 21:05 258K
20260503T18Z_MSC_RDPS_DewPointDepression_IsbL-0250_RLatLon0.09_PT080H.grib2 2026-05-03 21:05 296K
20260503T18Z_MSC_RDPS_DewPointDepression_IsbL-0275_RLatLon0.09_PT080H.grib2 2026-05-03 21:05 306K
20260503T18Z_MSC_RDPS_DewPointDepression_IsbL-0300_RLatLon0.09_PT080H.grib2 2026-05-03 21:05 322K
20260503T18Z_MSC_RDPS_DewPointDepression_IsbL-0350_RLatLon0.09_PT080H.grib2 2026-05-03 21:05 329K
20260503T18Z_MSC_RDPS_DewPointDepression_IsbL-0400_RLatLon0.09_PT080H.grib2 2026-05-03 21:05 341K
20260503T18Z_MSC_RDPS_DewPointDepression_IsbL-0450_RLatLon0.09_PT080H.grib2 2026-05-03 21:05 349K
20260503T18Z_MSC_RDPS_DewPointDepression_IsbL-0500_RLatLon0.09_PT080H.grib2 2026-05-03 21:05 351K
20260503T18Z_MSC_RDPS_DewPointDepression_IsbL-0550_RLatLon0.09_PT080H.grib2 2026-05-03 21:05 362K
20260503T18Z_MSC_RDPS_DewPointDepression_IsbL-0600_RLatLon0.09_PT080H.grib2 2026-05-03 21:05 369K
20260503T18Z_MSC_RDPS_DewPointDepression_IsbL-0650_RLatLon0.09_PT080H.grib2 2026-05-03 21:05 372K
20260503T18Z_MSC_RDPS_DewPointDepression_IsbL-0700_RLatLon0.09_PT080H.grib2 2026-05-03 21:05 382K
20260503T18Z_MSC_RDPS_DewPointDepression_IsbL-0750_RLatLon0.09_PT080H.grib2 2026-05-03 21:05 403K
20260503T18Z_MSC_RDPS_DewPointDepression_IsbL-0800_RLatLon0.09_PT080H.grib2 2026-05-03 21:05 443K
20260503T18Z_MSC_RDPS_DewPointDepression_IsbL-0850_RLatLon0.09_PT080H.grib2 2026-05-03 21:05 477K
20260503T18Z_MSC_RDPS_DewPointDepression_IsbL-0875_RLatLon0.09_PT080H.grib2 2026-05-03 21:05 478K
20260503T18Z_MSC_RDPS_DewPointDepression_IsbL-0900_RLatLon0.09_PT080H.grib2 2026-05-03 21:05 468K
20260503T18Z_MSC_RDPS_DewPointDepression_IsbL-0925_RLatLon0.09_PT080H.grib2 2026-05-03 21:05 455K
20260503T18Z_MSC_RDPS_DewPointDepression_IsbL-0950_RLatLon0.09_PT080H.grib2 2026-05-03 21:05 440K
20260503T18Z_MSC_RDPS_DewPointDepression_IsbL-0970_RLatLon0.09_PT080H.grib2 2026-05-03 21:05 431K
20260503T18Z_MSC_RDPS_DewPointDepression_IsbL-0985_RLatLon0.09_PT080H.grib2 2026-05-03 21:05 428K
20260503T18Z_MSC_RDPS_DewPointDepression_IsbL-1000_RLatLon0.09_PT080H.grib2 2026-05-03 21:05 424K
20260503T18Z_MSC_RDPS_DewPointDepression_IsbL-1015_RLatLon0.09_PT080H.grib2 2026-05-03 21:05 412K
20260503T18Z_MSC_RDPS_DewPoint_AGL-2m_RLatLon0.09_PT080H.grib2 2026-05-03 21:05 305K
20260503T18Z_MSC_RDPS_DownwardLongwaveRadiationFlux-Accum_Sfc_RLatLon0.09_PT080H.grib2 2026-05-03 21:05 440K
20260503T18Z_MSC_RDPS_DownwardShortwaveRadiationFlux-Accum_NTAtm_RLatLon0.09_PT080H.grib2 2026-05-03 21:05 109K
20260503T18Z_MSC_RDPS_DownwardShortwaveRadiationFlux-Accum_Sfc_RLatLon0.09_PT080H.grib2 2026-05-03 21:05 652K
20260503T18Z_MSC_RDPS_FreezingRain-Accum1h_Sfc_RLatLon0.09_PT080H.grib2 2026-05-03 21:05 31K
20260503T18Z_MSC_RDPS_FreezingRain-Accum_Sfc_RLatLon0.09_PT080H.grib2 2026-05-03 21:05 213K
20260503T18Z_MSC_RDPS_GeopotentialHeight_IsbL-0001_RLatLon0.09_PT080H.grib2 2026-05-03 21:05 306K
20260503T18Z_MSC_RDPS_GeopotentialHeight_IsbL-0005_RLatLon0.09_PT080H.grib2 2026-05-03 21:05 332K
20260503T18Z_MSC_RDPS_GeopotentialHeight_IsbL-0010_RLatLon0.09_PT080H.grib2 2026-05-03 21:05 334K
20260503T18Z_MSC_RDPS_GeopotentialHeight_IsbL-0020_RLatLon0.09_PT080H.grib2 2026-05-03 21:05 300K
20260503T18Z_MSC_RDPS_GeopotentialHeight_IsbL-0030_RLatLon0.09_PT080H.grib2 2026-05-03 21:05 302K
20260503T18Z_MSC_RDPS_GeopotentialHeight_IsbL-0050_RLatLon0.09_PT080H.grib2 2026-05-03 21:05 303K
20260503T18Z_MSC_RDPS_GeopotentialHeight_IsbL-0100_RLatLon0.09_PT080H.grib2 2026-05-03 21:05 282K
20260503T18Z_MSC_RDPS_GeopotentialHeight_IsbL-0150_RLatLon0.09_PT080H.grib2 2026-05-03 21:05 226K
20260503T18Z_MSC_RDPS_GeopotentialHeight_IsbL-0175_RLatLon0.09_PT080H.grib2 2026-05-03 21:05 229K
20260503T18Z_MSC_RDPS_GeopotentialHeight_IsbL-0200_RLatLon0.09_PT080H.grib2 2026-05-03 21:05 264K
20260503T18Z_MSC_RDPS_GeopotentialHeight_IsbL-0225_RLatLon0.09_PT080H.grib2 2026-05-03 21:05 265K
20260503T18Z_MSC_RDPS_GeopotentialHeight_IsbL-0250_RLatLon0.09_PT080H.grib2 2026-05-03 21:05 266K
20260503T18Z_MSC_RDPS_GeopotentialHeight_IsbL-0275_RLatLon0.09_PT080H.grib2 2026-05-03 21:05 234K
20260503T18Z_MSC_RDPS_GeopotentialHeight_IsbL-0300_RLatLon0.09_PT080H.grib2 2026-05-03 21:05 234K
20260503T18Z_MSC_RDPS_GeopotentialHeight_IsbL-0350_RLatLon0.09_PT080H.grib2 2026-05-03 21:05 231K
20260503T18Z_MSC_RDPS_GeopotentialHeight_IsbL-0400_RLatLon0.09_PT080H.grib2 2026-05-03 21:05 227K
20260503T18Z_MSC_RDPS_GeopotentialHeight_IsbL-0450_RLatLon0.09_PT080H.grib2 2026-05-03 21:05 294K
20260503T18Z_MSC_RDPS_GeopotentialHeight_IsbL-0500_RLatLon0.09_PT080H.grib2 2026-05-03 21:05 289K
20260503T18Z_MSC_RDPS_GeopotentialHeight_IsbL-0550_RLatLon0.09_PT080H.grib2 2026-05-03 21:05 286K
20260503T18Z_MSC_RDPS_GeopotentialHeight_IsbL-0600_RLatLon0.09_PT080H.grib2 2026-05-03 21:05 282K
20260503T18Z_MSC_RDPS_GeopotentialHeight_IsbL-0650_RLatLon0.09_PT080H.grib2 2026-05-03 21:05 253K
20260503T18Z_MSC_RDPS_GeopotentialHeight_IsbL-0700_RLatLon0.09_PT080H.grib2 2026-05-03 21:05 333K
20260503T18Z_MSC_RDPS_GeopotentialHeight_IsbL-0750_RLatLon0.09_PT080H.grib2 2026-05-03 21:05 336K
20260503T18Z_MSC_RDPS_GeopotentialHeight_IsbL-0800_RLatLon0.09_PT080H.grib2 2026-05-03 21:05 374K
20260503T18Z_MSC_RDPS_GeopotentialHeight_IsbL-0850_RLatLon0.09_PT080H.grib2 2026-05-03 21:05 383K
20260503T18Z_MSC_RDPS_GeopotentialHeight_IsbL-0875_RLatLon0.09_PT080H.grib2 2026-05-03 21:05 386K
20260503T18Z_MSC_RDPS_GeopotentialHeight_IsbL-0900_RLatLon0.09_PT080H.grib2 2026-05-03 21:05 389K
20260503T18Z_MSC_RDPS_GeopotentialHeight_IsbL-0925_RLatLon0.09_PT080H.grib2 2026-05-03 21:05 393K
20260503T18Z_MSC_RDPS_GeopotentialHeight_IsbL-0950_RLatLon0.09_PT080H.grib2 2026-05-03 21:05 395K
20260503T18Z_MSC_RDPS_GeopotentialHeight_IsbL-0970_RLatLon0.09_PT080H.grib2 2026-05-03 21:05 364K
20260503T18Z_MSC_RDPS_GeopotentialHeight_IsbL-0985_RLatLon0.09_PT080H.grib2 2026-05-03 21:05 372K
20260503T18Z_MSC_RDPS_GeopotentialHeight_IsbL-1000_RLatLon0.09_PT080H.grib2 2026-05-03 21:05 383K
20260503T18Z_MSC_RDPS_GeopotentialHeight_IsbL-1015_RLatLon0.09_PT080H.grib2 2026-05-03 21:05 397K
20260503T18Z_MSC_RDPS_Humidex_Sfc_RLatLon0.09_PT080H.grib2 2026-05-03 21:05 2.2M
20260503T18Z_MSC_RDPS_IcePellets-Accum1h_Sfc_RLatLon0.09_PT080H.grib2 2026-05-03 21:05 5.5K
20260503T18Z_MSC_RDPS_IcePellets-Accum_Sfc_RLatLon0.09_PT080H.grib2 2026-05-03 21:05 50K
20260503T18Z_MSC_RDPS_KIndex_Sfc_RLatLon0.09_PT080H.grib2 2026-05-03 21:05 2.5M
20260503T18Z_MSC_RDPS_LatentHeatNetFlux_Sfc_RLatLon0.09_PT080H.grib2 2026-05-03 21:05 327K
20260503T18Z_MSC_RDPS_LiftedIndex-MU-VT_IsbL-0500_RLatLon0.09_PT080H.grib2 2026-05-03 21:05 2.4M
20260503T18Z_MSC_RDPS_NetLongwaveRadiationFlux-Accum_Sfc_RLatLon0.09_PT080H.grib2 2026-05-03 21:05 491K
20260503T18Z_MSC_RDPS_NetShortwaveRadiationFlux-Accum_Sfc_RLatLon0.09_PT080H.grib2 2026-05-03 21:05 650K
20260503T18Z_MSC_RDPS_PlanetaryBoundaryLayerHeight_Sfc_RLatLon0.09_PT080H.grib2 2026-05-03 21:05 1.1M
20260503T18Z_MSC_RDPS_Precip-Accum1h_Sfc_RLatLon0.09_PT080H.grib2 2026-05-03 21:05 1.2M
20260503T18Z_MSC_RDPS_Precip-Accum_Sfc_RLatLon0.09_PT080H.grib2 2026-05-03 21:05 2.3M
20260503T18Z_MSC_RDPS_PrecipRate_Sfc_RLatLon0.09_PT080H.grib2 2026-05-03 21:05 171K
20260503T18Z_MSC_RDPS_PrecipType-Instant_Sfc_RLatLon0.09_PT080H.grib2 2026-05-03 21:05 564K
20260503T18Z_MSC_RDPS_Pressure-Trend3h_Sfc_RLatLon0.09_PT080H.grib2 2026-05-03 21:05 1.2M
20260503T18Z_MSC_RDPS_Pressure_MSL_RLatLon0.09_PT080H.grib2 2026-05-03 21:05 289K
20260503T18Z_MSC_RDPS_Pressure_PVU-1.5_RLatLon0.09_PT080H.grib2 2026-05-03 21:05 2.3M
20260503T18Z_MSC_RDPS_Pressure_PVU-1_RLatLon0.09_PT080H.grib2 2026-05-03 21:05 2.4M
20260503T18Z_MSC_RDPS_Pressure_PVU-2_RLatLon0.09_PT080H.grib2 2026-05-03 21:05 2.4M
20260503T18Z_MSC_RDPS_Pressure_Sfc_RLatLon0.09_PT080H.grib2 2026-05-03 21:05 496K
20260503T18Z_MSC_RDPS_RadiativeTemp_Sfc_RLatLon0.09_PT080H.grib2 2026-05-03 21:05 303K
20260503T18Z_MSC_RDPS_Rain-Accum1h_Sfc_RLatLon0.09_PT080H.grib2 2026-05-03 21:05 531K
20260503T18Z_MSC_RDPS_Rain-Accum_Sfc_RLatLon0.09_PT080H.grib2 2026-05-03 21:05 1.9M
20260503T18Z_MSC_RDPS_RelativeHumidity_AGL-2m_RLatLon0.09_PT080H.grib2 2026-05-03 21:05 1.0M
20260503T18Z_MSC_RDPS_RelativeHumidity_IsbL-0010_RLatLon0.09_PT080H.grib2 2026-05-03 21:05 674K
20260503T18Z_MSC_RDPS_RelativeHumidity_IsbL-0020_RLatLon0.09_PT080H.grib2 2026-05-03 21:05 636K
20260503T18Z_MSC_RDPS_RelativeHumidity_IsbL-0030_RLatLon0.09_PT080H.grib2 2026-05-03 21:05 595K
20260503T18Z_MSC_RDPS_RelativeHumidity_IsbL-0050_RLatLon0.09_PT080H.grib2 2026-05-03 21:05 353K
20260503T18Z_MSC_RDPS_RelativeHumidity_IsbL-0100_RLatLon0.09_PT080H.grib2 2026-05-03 21:05 272K
20260503T18Z_MSC_RDPS_RelativeHumidity_IsbL-0150_RLatLon0.09_PT080H.grib2 2026-05-03 21:05 413K
20260503T18Z_MSC_RDPS_RelativeHumidity_IsbL-0175_RLatLon0.09_PT080H.grib2 2026-05-03 21:05 470K
20260503T18Z_MSC_RDPS_RelativeHumidity_IsbL-0200_RLatLon0.09_PT080H.grib2 2026-05-03 21:05 549K
20260503T18Z_MSC_RDPS_RelativeHumidity_IsbL-0225_RLatLon0.09_PT080H.grib2 2026-05-03 21:05 617K
20260503T18Z_MSC_RDPS_RelativeHumidity_IsbL-0250_RLatLon0.09_PT080H.grib2 2026-05-03 21:05 679K
20260503T18Z_MSC_RDPS_RelativeHumidity_IsbL-0275_RLatLon0.09_PT080H.grib2 2026-05-03 21:05 701K
20260503T18Z_MSC_RDPS_RelativeHumidity_IsbL-0300_RLatLon0.09_PT080H.grib2 2026-05-03 21:05 745K
20260503T18Z_MSC_RDPS_RelativeHumidity_IsbL-0350_RLatLon0.09_PT080H.grib2 2026-05-03 21:05 772K
20260503T18Z_MSC_RDPS_RelativeHumidity_IsbL-0400_RLatLon0.09_PT080H.grib2 2026-05-03 21:05 788K
20260503T18Z_MSC_RDPS_RelativeHumidity_IsbL-0450_RLatLon0.09_PT080H.grib2 2026-05-03 21:05 797K
20260503T18Z_MSC_RDPS_RelativeHumidity_IsbL-0500_RLatLon0.09_PT080H.grib2 2026-05-03 21:05 799K
20260503T18Z_MSC_RDPS_RelativeHumidity_IsbL-0550_RLatLon0.09_PT080H.grib2 2026-05-03 21:05 815K
20260503T18Z_MSC_RDPS_RelativeHumidity_IsbL-0600_RLatLon0.09_PT080H.grib2 2026-05-03 21:05 831K
20260503T18Z_MSC_RDPS_RelativeHumidity_IsbL-0650_RLatLon0.09_PT080H.grib2 2026-05-03 21:05 851K
20260503T18Z_MSC_RDPS_RelativeHumidity_IsbL-0700_RLatLon0.09_PT080H.grib2 2026-05-03 21:05 863K
20260503T18Z_MSC_RDPS_RelativeHumidity_IsbL-0750_RLatLon0.09_PT080H.grib2 2026-05-03 21:05 904K
20260503T18Z_MSC_RDPS_RelativeHumidity_IsbL-0800_RLatLon0.09_PT080H.grib2 2026-05-03 21:05 1.0M
20260503T18Z_MSC_RDPS_RelativeHumidity_IsbL-0850_RLatLon0.09_PT080H.grib2 2026-05-03 21:05 1.0M
20260503T18Z_MSC_RDPS_RelativeHumidity_IsbL-0875_RLatLon0.09_PT080H.grib2 2026-05-03 21:05 1.1M
20260503T18Z_MSC_RDPS_RelativeHumidity_IsbL-0900_RLatLon0.09_PT080H.grib2 2026-05-03 21:05 1.1M
20260503T18Z_MSC_RDPS_RelativeHumidity_IsbL-0925_RLatLon0.09_PT080H.grib2 2026-05-03 21:05 1.1M
20260503T18Z_MSC_RDPS_RelativeHumidity_IsbL-0950_RLatLon0.09_PT080H.grib2 2026-05-03 21:05 1.1M
20260503T18Z_MSC_RDPS_RelativeHumidity_IsbL-0970_RLatLon0.09_PT080H.grib2 2026-05-03 21:05 1.0M
20260503T18Z_MSC_RDPS_RelativeHumidity_IsbL-0985_RLatLon0.09_PT080H.grib2 2026-05-03 21:05 1.0M
20260503T18Z_MSC_RDPS_RelativeHumidity_IsbL-1000_RLatLon0.09_PT080H.grib2 2026-05-03 21:05 1.0M
20260503T18Z_MSC_RDPS_RelativeHumidity_IsbL-1015_RLatLon0.09_PT080H.grib2 2026-05-03 21:05 1.0M
20260503T18Z_MSC_RDPS_Runoff-Accum_Sfc_RLatLon0.09_PT080H.grib2 2026-05-03 21:05 73K
20260503T18Z_MSC_RDPS_SWEATIndex_Sfc_RLatLon0.09_PT080H.grib2 2026-05-03 21:05 2.4M
20260503T18Z_MSC_RDPS_SeeingIndex_EAtm_RLatLon0.09_PT080H.grib2 2026-05-03 21:05 1.0M
20260503T18Z_MSC_RDPS_SensibleHeatNetFlux_Sfc_RLatLon0.09_PT080H.grib2 2026-05-03 21:05 289K
20260503T18Z_MSC_RDPS_ShowalterIndex_IsbL-0500_RLatLon0.09_PT080H.grib2 2026-05-03 21:05 2.6M
20260503T18Z_MSC_RDPS_SkyTransparencyIndex_EAtm_RLatLon0.09_PT080H.grib2 2026-05-03 21:05 726K
20260503T18Z_MSC_RDPS_Snow-Accum1h_Sfc_RLatLon0.09_PT080H.grib2 2026-05-03 21:05 442K
20260503T18Z_MSC_RDPS_Snow-Accum_Sfc_RLatLon0.09_PT080H.grib2 2026-05-03 21:05 809K
20260503T18Z_MSC_RDPS_SnowDensity_Sfc_RLatLon0.09_PT080H.grib2 2026-05-03 21:05 176K
20260503T18Z_MSC_RDPS_SnowDepth_Sfc_RLatLon0.09_PT080H.grib2 2026-05-03 21:05 650K
20260503T18Z_MSC_RDPS_SoilTemp_DBS-0to10cm_RLatLon0.09_PT080H.grib2 2026-05-03 21:05 251K
20260503T18Z_MSC_RDPS_SoilTemp_Sfc_RLatLon0.09_PT080H.grib2 2026-05-03 21:05 281K
20260503T18Z_MSC_RDPS_SoilVolumetricIceContent_Sfc_RLatLon0.09_PT080H.grib2 2026-05-03 21:05 150K
20260503T18Z_MSC_RDPS_SoilVolumetricWaterContent_DBS-0to10cm_RLatLon0.09_PT080H.grib2 2026-05-03 21:05 282K
20260503T18Z_MSC_RDPS_SoilVolumetricWaterContent_DBS-0to1cm_RLatLon0.09_PT080H.grib2 2026-05-03 21:05 343K
20260503T18Z_MSC_RDPS_SpecificHumidity_AGL-120m_RLatLon0.09_PT080H.grib2 2026-05-03 21:05 486K
20260503T18Z_MSC_RDPS_SpecificHumidity_AGL-2m_RLatLon0.09_PT080H.grib2 2026-05-03 21:05 657K
20260503T18Z_MSC_RDPS_SpecificHumidity_AGL-40m_RLatLon0.09_PT080H.grib2 2026-05-03 21:05 493K
20260503T18Z_MSC_RDPS_SpecificHumidity_AGL-80m_RLatLon0.09_PT080H.grib2 2026-05-03 21:05 488K
20260503T18Z_MSC_RDPS_SpecificHumidity_IsbL-0001_RLatLon0.09_PT080H.grib2 2026-05-03 21:05 371K
20260503T18Z_MSC_RDPS_SpecificHumidity_IsbL-0005_RLatLon0.09_PT080H.grib2 2026-05-03 21:05 364K
20260503T18Z_MSC_RDPS_SpecificHumidity_IsbL-0010_RLatLon0.09_PT080H.grib2 2026-05-03 21:05 395K
20260503T18Z_MSC_RDPS_SpecificHumidity_IsbL-0020_RLatLon0.09_PT080H.grib2 2026-05-03 21:05 372K
20260503T18Z_MSC_RDPS_SpecificHumidity_IsbL-0030_RLatLon0.09_PT080H.grib2 2026-05-03 21:05 359K
20260503T18Z_MSC_RDPS_SpecificHumidity_IsbL-0050_RLatLon0.09_PT080H.grib2 2026-05-03 21:05 465K
20260503T18Z_MSC_RDPS_SpecificHumidity_IsbL-0100_RLatLon0.09_PT080H.grib2 2026-05-03 21:05 440K
20260503T18Z_MSC_RDPS_SpecificHumidity_IsbL-0150_RLatLon0.09_PT080H.grib2 2026-05-03 21:05 460K
20260503T18Z_MSC_RDPS_SpecificHumidity_IsbL-0175_RLatLon0.09_PT080H.grib2 2026-05-03 21:05 441K
20260503T18Z_MSC_RDPS_SpecificHumidity_IsbL-0200_RLatLon0.09_PT080H.grib2 2026-05-03 21:05 471K
20260503T18Z_MSC_RDPS_SpecificHumidity_IsbL-0225_RLatLon0.09_PT080H.grib2 2026-05-03 21:05 454K
20260503T18Z_MSC_RDPS_SpecificHumidity_IsbL-0250_RLatLon0.09_PT080H.grib2 2026-05-03 21:05 555K
20260503T18Z_MSC_RDPS_SpecificHumidity_IsbL-0275_RLatLon0.09_PT080H.grib2 2026-05-03 21:05 469K
20260503T18Z_MSC_RDPS_SpecificHumidity_IsbL-0300_RLatLon0.09_PT080H.grib2 2026-05-03 21:05 566K
20260503T18Z_MSC_RDPS_SpecificHumidity_IsbL-0350_RLatLon0.09_PT080H.grib2 2026-05-03 21:05 536K
20260503T18Z_MSC_RDPS_SpecificHumidity_IsbL-0400_RLatLon0.09_PT080H.grib2 2026-05-03 21:05 521K
20260503T18Z_MSC_RDPS_SpecificHumidity_IsbL-0450_RLatLon0.09_PT080H.grib2 2026-05-03 21:05 575K
20260503T18Z_MSC_RDPS_SpecificHumidity_IsbL-0500_RLatLon0.09_PT080H.grib2 2026-05-03 21:05 508K
20260503T18Z_MSC_RDPS_SpecificHumidity_IsbL-0550_RLatLon0.09_PT080H.grib2 2026-05-03 21:05 580K
20260503T18Z_MSC_RDPS_SpecificHumidity_IsbL-0600_RLatLon0.09_PT080H.grib2 2026-05-03 21:05 630K
20260503T18Z_MSC_RDPS_SpecificHumidity_IsbL-0650_RLatLon0.09_PT080H.grib2 2026-05-03 21:05 545K
20260503T18Z_MSC_RDPS_SpecificHumidity_IsbL-0700_RLatLon0.09_PT080H.grib2 2026-05-03 21:05 586K
20260503T18Z_MSC_RDPS_SpecificHumidity_IsbL-0750_RLatLon0.09_PT080H.grib2 2026-05-03 21:05 652K
20260503T18Z_MSC_RDPS_SpecificHumidity_IsbL-0800_RLatLon0.09_PT080H.grib2 2026-05-03 21:05 729K
20260503T18Z_MSC_RDPS_SpecificHumidity_IsbL-0850_RLatLon0.09_PT080H.grib2 2026-05-03 21:05 809K
20260503T18Z_MSC_RDPS_SpecificHumidity_IsbL-0875_RLatLon0.09_PT080H.grib2 2026-05-03 21:05 837K
20260503T18Z_MSC_RDPS_SpecificHumidity_IsbL-0900_RLatLon0.09_PT080H.grib2 2026-05-03 21:05 710K
20260503T18Z_MSC_RDPS_SpecificHumidity_IsbL-0925_RLatLon0.09_PT080H.grib2 2026-05-03 21:05 712K
20260503T18Z_MSC_RDPS_SpecificHumidity_IsbL-0950_RLatLon0.09_PT080H.grib2 2026-05-03 21:05 707K
20260503T18Z_MSC_RDPS_SpecificHumidity_IsbL-0970_RLatLon0.09_PT080H.grib2 2026-05-03 21:05 697K
20260503T18Z_MSC_RDPS_SpecificHumidity_IsbL-0985_RLatLon0.09_PT080H.grib2 2026-05-03 21:05 689K
20260503T18Z_MSC_RDPS_SpecificHumidity_IsbL-1000_RLatLon0.09_PT080H.grib2 2026-05-03 21:05 683K
20260503T18Z_MSC_RDPS_SpecificHumidity_IsbL-1015_RLatLon0.09_PT080H.grib2 2026-05-03 21:05 671K
20260503T18Z_MSC_RDPS_SpecificHumidity_Sfc_RLatLon0.09_PT080H.grib2 2026-05-03 21:05 323K
20260503T18Z_MSC_RDPS_StormRelativeHelicity_EtaL-10000_RLatLon0.09_PT080H.grib2 2026-05-03 21:05 1.1M
20260503T18Z_MSC_RDPS_StormSeverityIndex_EtaL-10000_RLatLon0.09_PT080H.grib2 2026-05-03 21:05 1.2M
20260503T18Z_MSC_RDPS_Thickness_IsbL-0850to0700_RLatLon0.09_PT080H.grib2 2026-05-03 21:05 173K
20260503T18Z_MSC_RDPS_Thickness_IsbL-1000to0500_RLatLon0.09_PT080H.grib2 2026-05-03 21:05 192K
20260503T18Z_MSC_RDPS_Thickness_IsbL-1000to0850_RLatLon0.09_PT080H.grib2 2026-05-03 21:05 181K
20260503T18Z_MSC_RDPS_TotalCloudCover_Sfc_RLatLon0.09_PT080H.grib2 2026-05-03 21:05 666K
20260503T18Z_MSC_RDPS_TotalTotalsIndex_Sfc_RLatLon0.09_PT080H.grib2 2026-05-03 21:05 2.4M
20260503T18Z_MSC_RDPS_UVIndex-ClearSky_Sfc_RLatLon0.09_PT080H.grib2 2026-05-03 21:05 122K
20260503T18Z_MSC_RDPS_UVIndex_Sfc_RLatLon0.09_PT080H.grib2 2026-05-03 21:05 256K
20260503T18Z_MSC_RDPS_UpwardLongwaveRadiationFlux_NTAtm_RLatLon0.09_PT080H.grib2 2026-05-03 21:05 487K
20260503T18Z_MSC_RDPS_UpwardShortwaveRadiationFlux_NTAtm_RLatLon0.09_PT080H.grib2 2026-05-03 21:05 240K
20260503T18Z_MSC_RDPS_VerticalVelocity_IsbL-0250_RLatLon0.09_PT080H.grib2 2026-05-03 21:05 574K
20260503T18Z_MSC_RDPS_VerticalVelocity_IsbL-0500_RLatLon0.09_PT080H.grib2 2026-05-03 21:05 540K
20260503T18Z_MSC_RDPS_VerticalVelocity_IsbL-0700_RLatLon0.09_PT080H.grib2 2026-05-03 21:05 586K
20260503T18Z_MSC_RDPS_VerticalVelocity_IsbL-0850_RLatLon0.09_PT080H.grib2 2026-05-03 21:05 686K
20260503T18Z_MSC_RDPS_VerticalWindShear_EtaL-6500_RLatLon0.09_PT080H.grib2 2026-05-03 21:05 1.2M
20260503T18Z_MSC_RDPS_WindChill_Sfc_RLatLon0.09_PT080H.grib2 2026-05-03 21:05 1.1M
20260503T18Z_MSC_RDPS_WindDir_AGL-10m_RLatLon0.09_PT080H.grib2 2026-05-03 21:05 945K
20260503T18Z_MSC_RDPS_WindDir_AGL-120m_RLatLon0.09_PT080H.grib2 2026-05-03 21:05 589K
20260503T18Z_MSC_RDPS_WindDir_AGL-40m_RLatLon0.09_PT080H.grib2 2026-05-03 21:05 617K
20260503T18Z_MSC_RDPS_WindDir_AGL-80m_RLatLon0.09_PT080H.grib2 2026-05-03 21:05 599K
20260503T18Z_MSC_RDPS_WindDir_IsbL-0001_RLatLon0.09_PT080H.grib2 2026-05-03 21:05 311K
20260503T18Z_MSC_RDPS_WindDir_IsbL-0005_RLatLon0.09_PT080H.grib2 2026-05-03 21:05 362K
20260503T18Z_MSC_RDPS_WindDir_IsbL-0010_RLatLon0.09_PT080H.grib2 2026-05-03 21:05 378K
20260503T18Z_MSC_RDPS_WindDir_IsbL-0020_RLatLon0.09_PT080H.grib2 2026-05-03 21:05 413K
20260503T18Z_MSC_RDPS_WindDir_IsbL-0030_RLatLon0.09_PT080H.grib2 2026-05-03 21:05 403K
20260503T18Z_MSC_RDPS_WindDir_IsbL-0050_RLatLon0.09_PT080H.grib2 2026-05-03 21:05 415K
20260503T18Z_MSC_RDPS_WindDir_IsbL-0100_RLatLon0.09_PT080H.grib2 2026-05-03 21:05 405K
20260503T18Z_MSC_RDPS_WindDir_IsbL-0150_RLatLon0.09_PT080H.grib2 2026-05-03 21:05 405K
20260503T18Z_MSC_RDPS_WindDir_IsbL-0175_RLatLon0.09_PT080H.grib2 2026-05-03 21:05 427K
20260503T18Z_MSC_RDPS_WindDir_IsbL-0200_RLatLon0.09_PT080H.grib2 2026-05-03 21:05 445K
20260503T18Z_MSC_RDPS_WindDir_IsbL-0225_RLatLon0.09_PT080H.grib2 2026-05-03 21:05 450K
20260503T18Z_MSC_RDPS_WindDir_IsbL-0250_RLatLon0.09_PT080H.grib2 2026-05-03 21:05 450K
20260503T18Z_MSC_RDPS_WindDir_IsbL-0275_RLatLon0.09_PT080H.grib2 2026-05-03 21:05 467K
20260503T18Z_MSC_RDPS_WindDir_IsbL-0300_RLatLon0.09_PT080H.grib2 2026-05-03 21:05 467K
20260503T18Z_MSC_RDPS_WindDir_IsbL-0350_RLatLon0.09_PT080H.grib2 2026-05-03 21:05 493K
20260503T18Z_MSC_RDPS_WindDir_IsbL-0400_RLatLon0.09_PT080H.grib2 2026-05-03 21:05 510K
20260503T18Z_MSC_RDPS_WindDir_IsbL-0450_RLatLon0.09_PT080H.grib2 2026-05-03 21:05 528K
20260503T18Z_MSC_RDPS_WindDir_IsbL-0500_RLatLon0.09_PT080H.grib2 2026-05-03 21:05 542K
20260503T18Z_MSC_RDPS_WindDir_IsbL-0550_RLatLon0.09_PT080H.grib2 2026-05-03 21:05 555K
20260503T18Z_MSC_RDPS_WindDir_IsbL-0600_RLatLon0.09_PT080H.grib2 2026-05-03 21:05 586K
20260503T18Z_MSC_RDPS_WindDir_IsbL-0650_RLatLon0.09_PT080H.grib2 2026-05-03 21:05 629K
20260503T18Z_MSC_RDPS_WindDir_IsbL-0700_RLatLon0.09_PT080H.grib2 2026-05-03 21:05 671K
20260503T18Z_MSC_RDPS_WindDir_IsbL-0750_RLatLon0.09_PT080H.grib2 2026-05-03 21:05 716K
20260503T18Z_MSC_RDPS_WindDir_IsbL-0800_RLatLon0.09_PT080H.grib2 2026-05-03 21:05 784K
20260503T18Z_MSC_RDPS_WindDir_IsbL-0850_RLatLon0.09_PT080H.grib2 2026-05-03 21:05 857K
20260503T18Z_MSC_RDPS_WindDir_IsbL-0875_RLatLon0.09_PT080H.grib2 2026-05-03 21:05 881K
20260503T18Z_MSC_RDPS_WindDir_IsbL-0900_RLatLon0.09_PT080H.grib2 2026-05-03 21:05 893K
20260503T18Z_MSC_RDPS_WindDir_IsbL-0925_RLatLon0.09_PT080H.grib2 2026-05-03 21:05 901K
20260503T18Z_MSC_RDPS_WindDir_IsbL-0950_RLatLon0.09_PT080H.grib2 2026-05-03 21:05 899K
20260503T18Z_MSC_RDPS_WindDir_IsbL-0970_RLatLon0.09_PT080H.grib2 2026-05-03 21:05 900K
20260503T18Z_MSC_RDPS_WindDir_IsbL-0985_RLatLon0.09_PT080H.grib2 2026-05-03 21:05 907K
20260503T18Z_MSC_RDPS_WindDir_IsbL-1000_RLatLon0.09_PT080H.grib2 2026-05-03 21:05 921K
20260503T18Z_MSC_RDPS_WindDir_IsbL-1015_RLatLon0.09_PT080H.grib2 2026-05-03 21:05 937K
20260503T18Z_MSC_RDPS_WindGust-Max_AGL-10m_RLatLon0.09_PT080H.grib2 2026-05-03 21:05 951K
20260503T18Z_MSC_RDPS_WindGust-Min_AGL-10m_RLatLon0.09_PT080H.grib2 2026-05-03 21:05 966K
20260503T18Z_MSC_RDPS_WindGust_AGL-10m_RLatLon0.09_PT080H.grib2 2026-05-03 21:05 1.0M
20260503T18Z_MSC_RDPS_WindSpeed_AGL-10m_RLatLon0.09_PT080H.grib2 2026-05-03 21:05 827K
20260503T18Z_MSC_RDPS_WindSpeed_AGL-120m_RLatLon0.09_PT080H.grib2 2026-05-03 21:05 529K
20260503T18Z_MSC_RDPS_WindSpeed_AGL-40m_RLatLon0.09_PT080H.grib2 2026-05-03 21:05 533K
20260503T18Z_MSC_RDPS_WindSpeed_AGL-80m_RLatLon0.09_PT080H.grib2 2026-05-03 21:05 530K
20260503T18Z_MSC_RDPS_WindSpeed_IsbL-0001_RLatLon0.09_PT080H.grib2 2026-05-03 21:05 330K
20260503T18Z_MSC_RDPS_WindSpeed_IsbL-0005_RLatLon0.09_PT080H.grib2 2026-05-03 21:05 291K
20260503T18Z_MSC_RDPS_WindSpeed_IsbL-0010_RLatLon0.09_PT080H.grib2 2026-05-03 21:05 396K
20260503T18Z_MSC_RDPS_WindSpeed_IsbL-0020_RLatLon0.09_PT080H.grib2 2026-05-03 21:05 418K
20260503T18Z_MSC_RDPS_WindSpeed_IsbL-0030_RLatLon0.09_PT080H.grib2 2026-05-03 21:05 314K
20260503T18Z_MSC_RDPS_WindSpeed_IsbL-0050_RLatLon0.09_PT080H.grib2 2026-05-03 21:05 346K
20260503T18Z_MSC_RDPS_WindSpeed_IsbL-0100_RLatLon0.09_PT080H.grib2 2026-05-03 21:05 468K
20260503T18Z_MSC_RDPS_WindSpeed_IsbL-0150_RLatLon0.09_PT080H.grib2 2026-05-03 21:05 395K
20260503T18Z_MSC_RDPS_WindSpeed_IsbL-0175_RLatLon0.09_PT080H.grib2 2026-05-03 21:05 420K
20260503T18Z_MSC_RDPS_WindSpeed_IsbL-0200_RLatLon0.09_PT080H.grib2 2026-05-03 21:05 437K
20260503T18Z_MSC_RDPS_WindSpeed_IsbL-0225_RLatLon0.09_PT080H.grib2 2026-05-03 21:05 442K
20260503T18Z_MSC_RDPS_WindSpeed_IsbL-0250_RLatLon0.09_PT080H.grib2 2026-05-03 21:05 441K
20260503T18Z_MSC_RDPS_WindSpeed_IsbL-0275_RLatLon0.09_PT080H.grib2 2026-05-03 21:05 460K
20260503T18Z_MSC_RDPS_WindSpeed_IsbL-0300_RLatLon0.09_PT080H.grib2 2026-05-03 21:05 458K
20260503T18Z_MSC_RDPS_WindSpeed_IsbL-0350_RLatLon0.09_PT080H.grib2 2026-05-03 21:05 474K
20260503T18Z_MSC_RDPS_WindSpeed_IsbL-0400_RLatLon0.09_PT080H.grib2 2026-05-03 21:05 461K
20260503T18Z_MSC_RDPS_WindSpeed_IsbL-0450_RLatLon0.09_PT080H.grib2 2026-05-03 21:05 459K
20260503T18Z_MSC_RDPS_WindSpeed_IsbL-0500_RLatLon0.09_PT080H.grib2 2026-05-03 21:05 459K
20260503T18Z_MSC_RDPS_WindSpeed_IsbL-0550_RLatLon0.09_PT080H.grib2 2026-05-03 21:05 575K
20260503T18Z_MSC_RDPS_WindSpeed_IsbL-0600_RLatLon0.09_PT080H.grib2 2026-05-03 21:05 585K
20260503T18Z_MSC_RDPS_WindSpeed_IsbL-0650_RLatLon0.09_PT080H.grib2 2026-05-03 21:05 649K
20260503T18Z_MSC_RDPS_WindSpeed_IsbL-0700_RLatLon0.09_PT080H.grib2 2026-05-03 21:05 673K
20260503T18Z_MSC_RDPS_WindSpeed_IsbL-0750_RLatLon0.09_PT080H.grib2 2026-05-03 21:05 703K
20260503T18Z_MSC_RDPS_WindSpeed_IsbL-0800_RLatLon0.09_PT080H.grib2 2026-05-03 21:05 752K
20260503T18Z_MSC_RDPS_WindSpeed_IsbL-0850_RLatLon0.09_PT080H.grib2 2026-05-03 21:05 814K
20260503T18Z_MSC_RDPS_WindSpeed_IsbL-0875_RLatLon0.09_PT080H.grib2 2026-05-03 21:05 790K
20260503T18Z_MSC_RDPS_WindSpeed_IsbL-0900_RLatLon0.09_PT080H.grib2 2026-05-03 21:05 804K
20260503T18Z_MSC_RDPS_WindSpeed_IsbL-0925_RLatLon0.09_PT080H.grib2 2026-05-03 21:05 814K
20260503T18Z_MSC_RDPS_WindSpeed_IsbL-0950_RLatLon0.09_PT080H.grib2 2026-05-03 21:05 860K
20260503T18Z_MSC_RDPS_WindSpeed_IsbL-0970_RLatLon0.09_PT080H.grib2 2026-05-03 21:05 858K
20260503T18Z_MSC_RDPS_WindSpeed_IsbL-0985_RLatLon0.09_PT080H.grib2 2026-05-03 21:05 847K
20260503T18Z_MSC_RDPS_WindSpeed_IsbL-1000_RLatLon0.09_PT080H.grib2 2026-05-03 21:05 839K
20260503T18Z_MSC_RDPS_WindSpeed_IsbL-1015_RLatLon0.09_PT080H.grib2 2026-05-03 21:05 828K
20260503T18Z_MSC_RDPS_WindU_AGL-10m_RLatLon0.09_PT080H.grib2 2026-05-03 21:05 426K
20260503T18Z_MSC_RDPS_WindU_AGL-120m_RLatLon0.09_PT080H.grib2 2026-05-03 21:05 412K
20260503T18Z_MSC_RDPS_WindU_AGL-40m_RLatLon0.09_PT080H.grib2 2026-05-03 21:05 415K
20260503T18Z_MSC_RDPS_WindU_AGL-80m_RLatLon0.09_PT080H.grib2 2026-05-03 21:05 414K
20260503T18Z_MSC_RDPS_WindU_IsbL-0001_RLatLon0.09_PT080H.grib2 2026-05-03 21:05 242K
20260503T18Z_MSC_RDPS_WindU_IsbL-0005_RLatLon0.09_PT080H.grib2 2026-05-03 21:05 326K
20260503T18Z_MSC_RDPS_WindU_IsbL-0010_RLatLon0.09_PT080H.grib2 2026-05-03 21:05 297K
20260503T18Z_MSC_RDPS_WindU_IsbL-0020_RLatLon0.09_PT080H.grib2 2026-05-03 21:05 353K
20260503T18Z_MSC_RDPS_WindU_IsbL-0030_RLatLon0.09_PT080H.grib2 2026-05-03 21:05 348K
20260503T18Z_MSC_RDPS_WindU_IsbL-0050_RLatLon0.09_PT080H.grib2 2026-05-03 21:05 376K
20260503T18Z_MSC_RDPS_WindU_IsbL-0100_RLatLon0.09_PT080H.grib2 2026-05-03 21:05 330K
20260503T18Z_MSC_RDPS_WindU_IsbL-0150_RLatLon0.09_PT080H.grib2 2026-05-03 21:05 389K
20260503T18Z_MSC_RDPS_WindU_IsbL-0175_RLatLon0.09_PT080H.grib2 2026-05-03 21:05 412K
20260503T18Z_MSC_RDPS_WindU_IsbL-0200_RLatLon0.09_PT080H.grib2 2026-05-03 21:05 333K
20260503T18Z_MSC_RDPS_WindU_IsbL-0225_RLatLon0.09_PT080H.grib2 2026-05-03 21:05 335K
20260503T18Z_MSC_RDPS_WindU_IsbL-0250_RLatLon0.09_PT080H.grib2 2026-05-03 21:05 334K
20260503T18Z_MSC_RDPS_WindU_IsbL-0275_RLatLon0.09_PT080H.grib2 2026-05-03 21:05 349K
20260503T18Z_MSC_RDPS_WindU_IsbL-0300_RLatLon0.09_PT080H.grib2 2026-05-03 21:05 347K
20260503T18Z_MSC_RDPS_WindU_IsbL-0350_RLatLon0.09_PT080H.grib2 2026-05-03 21:05 460K
20260503T18Z_MSC_RDPS_WindU_IsbL-0400_RLatLon0.09_PT080H.grib2 2026-05-03 21:05 466K
20260503T18Z_MSC_RDPS_WindU_IsbL-0450_RLatLon0.09_PT080H.grib2 2026-05-03 21:05 465K
20260503T18Z_MSC_RDPS_WindU_IsbL-0500_RLatLon0.09_PT080H.grib2 2026-05-03 21:05 464K
20260503T18Z_MSC_RDPS_WindU_IsbL-0550_RLatLon0.09_PT080H.grib2 2026-05-03 21:05 465K
20260503T18Z_MSC_RDPS_WindU_IsbL-0600_RLatLon0.09_PT080H.grib2 2026-05-03 21:05 474K
20260503T18Z_MSC_RDPS_WindU_IsbL-0650_RLatLon0.09_PT080H.grib2 2026-05-03 21:05 493K
20260503T18Z_MSC_RDPS_WindU_IsbL-0700_RLatLon0.09_PT080H.grib2 2026-05-03 21:05 498K
20260503T18Z_MSC_RDPS_WindU_IsbL-0750_RLatLon0.09_PT080H.grib2 2026-05-03 21:05 538K
20260503T18Z_MSC_RDPS_WindU_IsbL-0800_RLatLon0.09_PT080H.grib2 2026-05-03 21:05 579K
20260503T18Z_MSC_RDPS_WindU_IsbL-0850_RLatLon0.09_PT080H.grib2 2026-05-03 21:05 630K
20260503T18Z_MSC_RDPS_WindU_IsbL-0875_RLatLon0.09_PT080H.grib2 2026-05-03 21:05 648K
20260503T18Z_MSC_RDPS_WindU_IsbL-0900_RLatLon0.09_PT080H.grib2 2026-05-03 21:05 658K
20260503T18Z_MSC_RDPS_WindU_IsbL-0925_RLatLon0.09_PT080H.grib2 2026-05-03 21:05 664K
20260503T18Z_MSC_RDPS_WindU_IsbL-0950_RLatLon0.09_PT080H.grib2 2026-05-03 21:05 653K
20260503T18Z_MSC_RDPS_WindU_IsbL-0970_RLatLon0.09_PT080H.grib2 2026-05-03 21:05 649K
20260503T18Z_MSC_RDPS_WindU_IsbL-0985_RLatLon0.09_PT080H.grib2 2026-05-03 21:05 643K
20260503T18Z_MSC_RDPS_WindU_IsbL-1000_RLatLon0.09_PT080H.grib2 2026-05-03 21:05 637K
20260503T18Z_MSC_RDPS_WindU_IsbL-1015_RLatLon0.09_PT080H.grib2 2026-05-03 21:05 768K
20260503T18Z_MSC_RDPS_WindV_AGL-10m_RLatLon0.09_PT080H.grib2 2026-05-03 21:05 423K
20260503T18Z_MSC_RDPS_WindV_AGL-120m_RLatLon0.09_PT080H.grib2 2026-05-03 21:05 525K
20260503T18Z_MSC_RDPS_WindV_AGL-40m_RLatLon0.09_PT080H.grib2 2026-05-03 21:05 527K
20260503T18Z_MSC_RDPS_WindV_AGL-80m_RLatLon0.09_PT080H.grib2 2026-05-03 21:05 526K
20260503T18Z_MSC_RDPS_WindV_IsbL-0001_RLatLon0.09_PT080H.grib2 2026-05-03 21:05 245K
20260503T18Z_MSC_RDPS_WindV_IsbL-0005_RLatLon0.09_PT080H.grib2 2026-05-03 21:05 286K
20260503T18Z_MSC_RDPS_WindV_IsbL-0010_RLatLon0.09_PT080H.grib2 2026-05-03 21:05 298K
20260503T18Z_MSC_RDPS_WindV_IsbL-0020_RLatLon0.09_PT080H.grib2 2026-05-03 21:05 317K
20260503T18Z_MSC_RDPS_WindV_IsbL-0030_RLatLon0.09_PT080H.grib2 2026-05-03 21:05 312K
20260503T18Z_MSC_RDPS_WindV_IsbL-0050_RLatLon0.09_PT080H.grib2 2026-05-03 21:05 339K
20260503T18Z_MSC_RDPS_WindV_IsbL-0100_RLatLon0.09_PT080H.grib2 2026-05-03 21:05 326K
20260503T18Z_MSC_RDPS_WindV_IsbL-0150_RLatLon0.09_PT080H.grib2 2026-05-03 21:05 387K
20260503T18Z_MSC_RDPS_WindV_IsbL-0175_RLatLon0.09_PT080H.grib2 2026-05-03 21:05 410K
20260503T18Z_MSC_RDPS_WindV_IsbL-0200_RLatLon0.09_PT080H.grib2 2026-05-03 21:05 427K
20260503T18Z_MSC_RDPS_WindV_IsbL-0225_RLatLon0.09_PT080H.grib2 2026-05-03 21:05 334K
20260503T18Z_MSC_RDPS_WindV_IsbL-0250_RLatLon0.09_PT080H.grib2 2026-05-03 21:05 334K
20260503T18Z_MSC_RDPS_WindV_IsbL-0275_RLatLon0.09_PT080H.grib2 2026-05-03 21:05 348K
20260503T18Z_MSC_RDPS_WindV_IsbL-0300_RLatLon0.09_PT080H.grib2 2026-05-03 21:05 346K
20260503T18Z_MSC_RDPS_WindV_IsbL-0350_RLatLon0.09_PT080H.grib2 2026-05-03 21:05 359K
20260503T18Z_MSC_RDPS_WindV_IsbL-0400_RLatLon0.09_PT080H.grib2 2026-05-03 21:05 362K
20260503T18Z_MSC_RDPS_WindV_IsbL-0450_RLatLon0.09_PT080H.grib2 2026-05-03 21:05 360K
20260503T18Z_MSC_RDPS_WindV_IsbL-0500_RLatLon0.09_PT080H.grib2 2026-05-03 21:05 462K
20260503T18Z_MSC_RDPS_WindV_IsbL-0550_RLatLon0.09_PT080H.grib2 2026-05-03 21:05 463K
20260503T18Z_MSC_RDPS_WindV_IsbL-0600_RLatLon0.09_PT080H.grib2 2026-05-03 21:05 472K
20260503T18Z_MSC_RDPS_WindV_IsbL-0650_RLatLon0.09_PT080H.grib2 2026-05-03 21:05 490K
20260503T18Z_MSC_RDPS_WindV_IsbL-0700_RLatLon0.09_PT080H.grib2 2026-05-03 21:05 509K
20260503T18Z_MSC_RDPS_WindV_IsbL-0750_RLatLon0.09_PT080H.grib2 2026-05-03 21:05 535K
20260503T18Z_MSC_RDPS_WindV_IsbL-0800_RLatLon0.09_PT080H.grib2 2026-05-03 21:05 562K
20260503T18Z_MSC_RDPS_WindV_IsbL-0850_RLatLon0.09_PT080H.grib2 2026-05-03 21:05 615K
20260503T18Z_MSC_RDPS_WindV_IsbL-0875_RLatLon0.09_PT080H.grib2 2026-05-03 21:05 635K
20260503T18Z_MSC_RDPS_WindV_IsbL-0900_RLatLon0.09_PT080H.grib2 2026-05-03 21:05 646K
20260503T18Z_MSC_RDPS_WindV_IsbL-0925_RLatLon0.09_PT080H.grib2 2026-05-03 21:05 654K
20260503T18Z_MSC_RDPS_WindV_IsbL-0950_RLatLon0.09_PT080H.grib2 2026-05-03 21:05 650K
20260503T18Z_MSC_RDPS_WindV_IsbL-0970_RLatLon0.09_PT080H.grib2 2026-05-03 21:05 646K
20260503T18Z_MSC_RDPS_WindV_IsbL-0985_RLatLon0.09_PT080H.grib2 2026-05-03 21:05 780K
20260503T18Z_MSC_RDPS_WindV_IsbL-1000_RLatLon0.09_PT080H.grib2 2026-05-03 21:05 772K
20260503T18Z_MSC_RDPS_WindV_IsbL-1015_RLatLon0.09_PT080H.grib2 2026-05-03 21:05 810K